Location: Chittendens Corners
(41.2320°N, 81.4940°W)
Time: 08:30:14
(UTC+00:00)

Lacrosse 5 - Pass Details

Date: 29 October 2020
Orbit: 716 x 723 km, 57.0° (Epoch: 06 November)

Event Time Altitude Azimuth Distance (km) Brightness Sun altitude
Rises 23:08:01 0° 306° (NW) 3,122 5.9 -8.8°
Reaches altitude 10° 23:11:46 10° 334° (NNW) 2,202 4.6 -9.5°
Maximum altitude 23:14:07 13° 2° (N) 1,996 4.1 -9.9°
Drops below altitude 10° 23:16:28 10° 30° (NNE) 2,203 4.0 -10.3°
Enters shadow 23:17:47 - 42° (NE) 2,467 4.2 -10.6°
